Orbital Elements at Epoch 2459200.5 (2020-Dec-17.0) TDB
Reference: JPL 22 (heliocentric ecliptic J2000)
Element | Value | Uncertainty (1-sigma) | Units |
e | .2004982212716028 | 3.6203e-08 | |
a | 2.182990858417774 | 7.8938e-09 | au |
q | 1.745305074252841 | 8.2009e-08 | au |
i | 7.58185166888625 | 3.6644e-06 | deg |
node | 180.3612019199291 | 2.6901e-05 | deg |
peri | 146.96950147309 | 2.8418e-05 | deg |
M | 229.8955699186174 | 9.1429e-06 | deg |
tp | 2459626.261008864544 (2022-Feb-15.76100886) | 3.0931e-05 | TDB |
period | 1178.084121312089 3.23 | 6.39e-06 1.749e-08 | d yr |
n | .3055808948507434 | 1.6575e-09 | deg/d |
Q | 2.620676642582707 | 9.4765e-09 | au |
|
| | Orbit Determination Parameters
Additional Information
|